Tracking 19377 objects as of 11-Dec-2018
HD Live streaming from Space Station
objects crossing your sky now

BEIDOU 3M8

Track BEIDOU 3M8 now!
BEIDOU 3M8 is classified as:


NORAD ID: 43246
Int'l Code: 2018-029B
Perigee: 21,521.6 km
Apogee: 21,548.3 km
Inclination: 55.1 °
Period: 773.2 minutes
Semi major axis: 27905 km
RCS: Unknown
Launch date: March 29, 2018
Source: People's Republic of China (PRC)
Launch site: Xichang Space Center, China (XSC)
aabbcc
Your satellite tracking list
Your tracking list is empty




NASA's NSSDC Master Catalog

Two Line Element Set (TLE):
1 43246U 18029B   18344.65421293 -.00000093 +00000-0 +10000-3 0  9998
2 43246 055.1370 034.4767 0004777 305.7079 188.0851 01.86233182004750
Source of the keplerian elements: AFSPC